Weather observations for the past three days for
Anchorage, Merrill Field Airport
Imperial (Metric)
Date Time (akdt) Wind (mph) Vis. (mi.) Weather Sky Cond. Temperature (ºF) Relative Humidity Wind Chill (°F) Heat Index (°F) Pressure Precipitation (in)
Air Dwpt 6 hour altimeter (in) sea level (mb) 1 hr 3 hr 6 hr
Max. Min.
12 07:53 W 3 10.00 A Few Clouds FEW060 55 46.9 74% 29.93 1013.7
12 06:53 NW 5 10.00 Mostly Cloudy FEW060 SCT130 BKN200 54 46.9 77% 29.94 1014.0
12 05:53 S 3 10.00 Overcast OVC065 55 44.1 67% 29.96 1014.6
12 03:53 NE 6 10.00 Overcast OVC070 55.9 44.1 62.1 55 65% 29.97 1014.9
12 02:53 NE 6 10.00 Overcast OVC065 57 44.1 62% 29.98 1015.1
12 01:53 E 3 10.00 Mostly Cloudy BKN070 57.9 42.1 56% 29.98 1015.1
12 00:53 S 8 10.00 Mostly Cloudy BKN075 BKN100 57.9 42.1 56% 29.97 1015.1
11 23:53 S 9 10.00 Overcast OVC070 59 42.1 54% 29.98 1015.1
11 20:53 S 10 10.00 Partly Cloudy SCT075 60.1 43 53% 29.95 1014.3
11 19:53 S 13 10.00 Fair CLR 61 43 52% 29.95 1014.2
11 18:53 S 15 G 21 10.00 A Few Clouds FEW080 63 43 48% 29.95 1014.2
11 17:53 S 13 G 20 10.00 Mostly Cloudy BKN050 64 43 46% 29.95 1014.2
11 16:53 S 13 G 18 10.00 Overcast BKN050 OVC120 63 44.1 50% 29.94 1014.0
11 15:53 SW 8 10.00 Light Rain FEW044 BKN065 OVC120 64.9 45 66.9 60.1 49% 29.94 1013.7
11 14:53 W 8 10.00 Mostly Cloudy FEW030 FEW055 BKN070 66 45 47% 29.93 1013.5
11 13:53 W 8 10.00 Mostly Cloudy BKN080 66 46 49% 29.93 1013.6
11 11:53 NW 7 10.00 Mostly Cloudy SCT040 BKN120 64 46 52% 29.93 1013.6
11 10:53 N 6 10.00 Fair CLR 62.1 46 56% 29.93 1013.5
11 09:53 W 6 10.00 Mostly Cloudy BKN070 60.1 45 61 55.9 58% 29.93 1013.6
11 08:53 N 3 10.00 Overcast OVC075 60.1 44.1 56% 29.92 1013.3
11 07:53 Calm 10.00 Mostly Cloudy BKN070 61 45 56% 29.91 1012.8
11 06:53 Calm 10.00 Partly Cloudy FEW070 SCT120 57.9 46 65% 29.89 1012.3
11 05:53 SE 3 10.00 Overcast FEW040 SCT075 BKN120 OVC250 55.9 46 70% 29.88 1011.9
11 04:53 NE 3 10.00 Mostly Cloudy FEW040 SCT075 BKN120 57 46 67% 29.87 1011.4
11 03:53 S 3 10.00 Overcast FEW040 BKN070 OVC120 57.9 43 63 57.9 58% 29.86 1011.2
11 02:53 Vrbl 3 10.00 Overcast FEW040 BKN070 OVC120 59 43 56% 29.85 1010.7
11 01:53 S 7 10.00 Overcast FEW040 BKN090 OVC120 59 44.1 58% 29.83 1010.2
10 23:53 E 10 10.00 Overcast SCT095 OVC120 62.1 39.9 44% 29.82 1009.7
10 22:53 S 8 G 17 10.00 Mostly Cloudy BKN110 61 44.1 54% 29.8 1009.0
10 21:53 S 8 10.00 Partly Cloudy FEW075 SCT110 63 45 69.1 63 52% 29.78 1008.5
10 19:53 S 8 10.00 Overcast OVC100 64.9 44.1 47% 29.75 1007.5
10 18:53 S 6 10.00 Mostly Cloudy BKN100 66.9 43 42% 29.75 1007.4
10 17:53 Calm 10.00 Overcast FEW043 BKN060 OVC090 66.9 48 51% 29.74 1007.2
10 16:53 SW 3 10.00 Mostly Cloudy FEW047 BKN080 66.9 46.9 49% 29.74 1006.9
10 15:53 W 5 10.00 Overcast FEW050 SCT055 OVC075 64 46.9 66 62.1 54% 29.73 1006.8
10 14:53 W 7 10.00 Mostly Cloudy BKN055 BKN070 BKN100 64.9 46.9 52% 29.73 1006.6
10 12:53 W 6 10.00 Overcast BKN044 OVC050 63 46.9 56% 29.72 1006.5
10 11:53 Vrbl 3 10.00 Overcast OVC050 63 46.9 56% 29.72 1006.3
10 10:53 NW 6 10.00 A Few Clouds FEW030 63 48 58% 29.72 1006.2
10 08:53 W 5 10.00 Overcast BKN060 OVC075 60.1 50 70% 29.71 1006.1
10 07:53 Vrbl 3 10.00 Overcast BKN060 OVC075 57.9 51.1 78% 29.71 1006.1
10 06:53 S 3 10.00 Mostly Cloudy SCT048 BKN070 55.9 50 81% 29.71 1006.2
10 05:53 Calm 10.00 Light Rain SCT048 BKN070 BKN100 55.9 48.9 77% 29.72 1006.3
10 04:53 Calm 10.00 Mostly Cloudy FEW042 BKN070 BKN100 57 48 72% 29.71 1006.3
10 02:53 E 3 10.00 Mostly Cloudy FEW045 SCT060 BKN075 57.9 48 70% 29.72 1006.5
10 01:53 Vrbl 3 10.00 Mostly Cloudy FEW045 SCT060 BKN075 59 46.9 64% 29.73 1006.7
10 00:53 NW 3 10.00 Mostly Cloudy FEW045 BKN060 57.9 48 70% 29.72 1006.5
09 23:53 NW 5 10.00 Overcast OVC070 60.1 46.9 62% 29.72 1006.5
09 22:53 W 3 10.00 Overcast SCT055 OVC065 61 46 58% 29.72 1006.5
09 20:53 NW 7 10.00 Overcast FEW048 OVC065 64.9 45 49% 29.71 1006.2
09 19:53 N 7 10.00 A Few Clouds FEW065 FEW090 64.9 45 49% 29.72 1006.4
09 18:53 N 7 10.00 Mostly Cloudy SCT070 BKN100 64 44.1 48% 29.72 1006.4
09 17:53 N 5 10.00 A Few Clouds FEW065 64.9 46 51% 29.73 1006.8
09 16:53 N 7 10.00 Overcast BKN095 OVC120 62.1 48 60% 29.75 1007.3
09 15:53 N 7 10.00 Overcast OVC085 60.1 48 61 55 65% 29.76 1007.8
09 14:53 N 6 10.00 Overcast OVC090 59 48 67% 29.77 1008.0
09 13:53 N 5 10.00 Overcast OVC085 59 48 67% 29.77 1008.3
09 12:53 NW 5 10.00 Overcast OVC090 57 48 72% 29.77 1008.3
09 11:53 Vrbl 3 10.00 Overcast OVC085 55.9 48 75% 29.78 1008.6
09 10:53 N 3 10.00 Overcast OVC080 55.9 48 75% 29.78 1008.6
09 09:53 NW 5 10.00 Light Rain OVC075 55 48 55.9 53.1 77% 29.79 1008.7
09 08:53 NW 6 10.00 Overcast OVC075 55 46.9 74% 29.78 1008.5
Date Time (akdt) Wind (mph) Vis. (mi.) Weather Sky Cond. Air Dwpt Max. Min. Relative Humidity Wind Chill (°F) Heat Index (°F) altimeter (in) sea level (mb) 1 hr 3 hr 6 hr
6 hour
Temperature (ºF) Pressure Precipitation (in)